User: anonymous   Login
Location: Diebersbach
(48.5163°N, 8.0558°E)
Time: 18:13:13
(UTC+00:00)
Language:

USA 305 - Orbit

View from above orbital plane
View from above orbital plane
View from above satellite
View from above satellite

Ground track
Ground track

The orbit data is extracted from the following two-line orbital elements,

1 45873U 20046A   21265.83632949 0.00002900  00000-0  23311-3 0    06
2 45873  53.9778 201.3643 0008453  35.8305 324.1694 14.99537123    04
Epoch (UTC): 22 September 2021 20:04:18
Eccentricity: 0.0008453
inclination: 53.9778°
perigee height: 562 km
apogee height: 574 km
right ascension of ascending node: 201.3643°
argument of perigee: 35.8305°
revolutions per day: 14.99537123
mean anomaly at epoch: 324.1694°
orbit number at epoch: 0

The dashed part of the orbit path shows where the satellite is in the earth's shadow,  

DLR